Flag for Poland Weather past 2 weeks in Warsaw, Poland

Now
46 °F

Passing clouds.


Feels Like: 42 °F
Forecast: 33 / 56 °F
Wind: 9 mph from North

Location: Warsaw Okecie Airport


UV Index: 3 (Moderate)

Visibility: N/A


Pressure: 30.30 "Hg

Humidity: 62%

Dew point: 34 °F

Location of WarsawLocation

Historic Weather in Warsaw

°F

Warsaw temperature yesterday

Maximum temperature yesterday: 48 °F (at 2:00 PM)
Minimum temperature yesterday: 41 °F (at 12:00 AM)
Average temperature yesterday: 44 °F

Past Weeks' High & Low Weather Summary

 TemperatureHumidityPressure
High73 °F (Apr 8, 3:00 PM)100% (Apr 7, 12:30 AM)30.30 "Hg (Apr 7, 12:30 AM)
Low27 °F (Apr 2, 5:00 AM)26% (Apr 5, 5:30 PM)29.59 "Hg (Apr 14, 2:30 PM)
Average46 °F69%29.96 "Hg
* Reported Apr 1 6:00 PM — Apr 16 6:30 PM, Warsaw, Weather by CustomWeather, © 2014

Note: Actual official high and low records may vary slightly from our data, if they occured in-between our weather recording intervals... More about our weather records

Advertising

Historic Weather Conditions — Data for Previous 24 hours

 ConditionsComfort  
Time TempWeatherWind HumidityBarometerVisibility
6:30 PM
Apr 16
46 °FPassing clouds.9 mph66%30.30 "HgN/A
6:00 PM48 °FPassing clouds.10 mph58%30.30 "HgN/A
5:30 PM48 °FPassing clouds.9 mph62%30.30 "HgN/A
5:00 PM48 °FPassing clouds.9 mph62%30.30 "HgN/A
4:30 PM46 °FScattered clouds.12 mph66%30.30 "HgN/A
4:00 PM46 °FScattered clouds.9 mph71%30.30 "HgN/A
3:30 PM46 °FScattered clouds.12 mph66%30.27 "HgN/A
3:00 PM48 °FScattered clouds.7 mph58%30.27 "HgN/A
2:30 PM48 °FPassing clouds.7 mph62%30.27 "HgN/A
2:00 PM46 °FScattered clouds.8 mph66%30.27 "HgN/A
1:30 PM46 °FPartly sunny.10 mph66%30.27 "HgN/A
1:00 PM45 °FPartly sunny.9 mph71%30.27 "HgN/A
12:30 PM45 °FPartly sunny.9 mph71%30.27 "HgN/A
12:00 PM45 °FPartly sunny.12 mph71%30.27 "HgN/A
11:30 AM41 °FPartly sunny.12 mph81%30.27 "HgN/A
11:00 AM41 °FPartly sunny.10 mph81%30.27 "HgN/A
10:30 AM39 °FPartly sunny.12 mph87%30.24 "HgN/A
10:00 AM41 °FPartly sunny.9 mph87%30.24 "HgN/A
9:30 AM41 °FPartly sunny.12 mph81%30.24 "HgN/A
9:00 AM41 °FPartly sunny.12 mph81%30.21 "HgN/A
8:30 AM39 °FPartly sunny.8 mph93%30.21 "HgN/A
8:00 AM39 °FScattered clouds.10 mph93%30.21 "HgN/A
7:30 AM39 °FPartly sunny.10 mph93%30.18 "HgN/A
7:00 AM39 °FPartly sunny.10 mph87%30.18 "HgN/A
6:30 AM39 °FPartly cloudy.12 mph87%30.18 "HgN/A
6:00 AM39 °FPassing clouds.14 mph87%30.15 "HgN/A
5:30 AM39 °FPassing clouds.8 mph93%30.15 "HgN/A
5:00 AM39 °FPassing clouds.9 mph93%30.12 "HgN/A
4:30 AM39 °FPassing clouds.10 mph93%30.12 "HgN/A
4:00 AM39 °FPassing clouds.10 mph93%30.09 "HgN/A
3:30 AM39 °FPassing clouds.10 mph87%30.09 "HgN/A
3:00 AM39 °FPassing clouds.12 mph87%30.09 "HgN/A
1:00 AM41 °FPassing clouds.12 mph87%30.07 "HgN/A
12:00 AM41 °FPassing clouds.9 mph87%30.04 "HgN/A
11:30 PM
Apr 15
41 °FPassing clouds.12 mph87%30.04 "HgN/A
11:00 PM43 °FPassing clouds.13 mph81%30.01 "HgN/A
10:30 PM41 °FClear.8 mph93%29.98 "Hg10 mi
10:00 PM41 °FPassing clouds.10 mph87%29.98 "HgN/A
9:30 PM43 °FPassing clouds.7 mph87%29.98 "HgN/A
9:00 PM43 °FClear.6 mph87%29.98 "Hg10 mi
8:30 PM43 °FScattered clouds.10 mph87%29.95 "HgN/A
8:00 PM43 °FScattered clouds.8 mph87%29.95 "HgN/A
7:30 PM45 °FScattered clouds.6 mph81%29.92 "HgN/A
7:00 PM45 °FPassing clouds.3 mph76%29.92 "HgN/A
Weather by CustomWeather, © 2014

See weather overview